Regional Weather Roundup
Issued by NWS

Home | Current Version | Previous Version | Graphics & Text | Print | Product List | Glossary Off
Versions: 1 2 3 4 5 6 7 8 9 10 11 12 13 14 15 16 17 18 19 20 21 22 23 24 25 26 27 28 29 30 31 32 33 34 35 36 37 38 39 40 41 42 43 44 45 46 47 48 49 50

000
ASUS43 KMKX 280700
RWRWI

WISCONSIN REGIONAL WEATHER ROUNDUP
NATIONAL WEATHER SERVICE MILWAUKEE/SULLIVAN WI
100 AM CST WED JAN 28 2015

NOTE: "FAIR" INDICATES FEW OR NO CLOUDS BELOW 12,000 FEET WITH NO
SIGNIFICANT WEATHER AND/OR OBSTRUCTIONS TO VISIBILITY.

WIZ001-002-006>008-014>016-023>028-280800-
NORTHWEST WISCONSIN

CITY           SKY/WX    TMP DP  RH WIND       PRES   REMARKS
SUPERIOR ARPT  MOCLDY    27  22  80 SW5       30.11F WCI  22
ASHLAND        CLOUDY    27  21  78 S6        30.13F WCI  20
HAYWARD        MOCLDY    24  19  81 S6        30.11F WCI  17
SIREN          MOCLDY    25  20  82 S8        30.13R WCI  16
CUMBERLAND     CLOUDY    23  19  86 S7        30.11F WCI  15
RICE LAKE      CLOUDY    24  20  87 SE5       30.15F WCI  18
CHETEK         CLOUDY    24  21  89 SE6       30.14F WCI  17
LADYSMITH      CLOUDY    26  22  87 S5        30.15F WCI  20
EAU CLAIRE     NOT AVBL
MENOMONIE      CLOUDY    26  21  81 SE6       30.16R WCI  20
NEW RICHMOND   CLOUDY    28  23  84 S10       30.14S WCI  18
OSCEOLA        CLOUDY    29  25  86 S9        30.15F WCI  20
$$

WIZ003>005-009-010-017-018-280800-
NORTH CENTRAL WISCONSIN

CITY           SKY/WX    TMP DP  RH WIND       PRES   REMARKS
MANITOWISH WTR CLOUDY    22  20  92 S6        30.12F WCI  15
ARBOR VITAE    CLOUDY    23  19  86 S7        30.13F WCI  15
WOODRUFF       CLOUDY    23  19  86 S7        30.13F WCI  15
RHINELANDER    CLOUDY    22  18  85 SW7       30.14F WCI  13
EAGLE RIVER    CLOUDY    22  18  84 CALM      30.13F
LAND O LAKES   CLOUDY    22  19  88 CALM      30.14S
PHILLIPS       CLOUDY    23  21  92 S7        30.12F FOG     WCI  14
TOMAHAWK       CLOUDY    22  19  88 CALM      30.16S
MEDFORD        CLOUDY    23  21  93 SE5       30.15S FOG     WCI  17
MERRILL        CLOUDY    23  21  91 CALM      30.18S
$$

WIZ029-030-035-036-043>047-280800-
CENTRAL WISCONSIN

CITY           SKY/WX    TMP DP  RH WIND       PRES   REMARKS
WAUSAU         CLOUDY    23  19  85 SE6       30.17F WCI  16
MOSINEE        CLOUDY    23  21  93 SE5       30.19F WCI  17
MARSHFIELD     CLOUDY    24  21  88 S7        30.17F FOG     WCI  16
STEVENS POINT  CLOUDY    22  18  84 SE3       30.20F
WAUPACA        CLOUDY    25  19  78 CALM      30.24S
WAUTOMA        NOT AVBL
WISC RAPIDS    CLOUDY    24  19  81 S3        30.20F
CAMP DOUGLAS   CLOUDY    27  27 100 S8        30.20S WCI  18
$$

WIZ011>013-019>022-031-037>040-048>050-280800-
NORTHEAST WISCONSIN

CITY           SKY/WX    TMP DP  RH WIND       PRES   REMARKS
ANTIGO         CLOUDY    21  18  89 S6        30.18S WCI  13
SHAWANO        CLOUDY    25  18  74 CALM      30.24S
OCONTO         CLOUDY    12  11  95 CALM      30.26S
STURGEON BAY   CLOUDY    19  16  86 W3        30.27S
GREEN BAY      MOCLDY    17  14  88 CALM      30.25F
MANITOWOC      NOT AVBL
APPLETON       CLOUDY    23  18  80 SE3       30.23F
CLINTONVILLE   CLOUDY    23  18  80 CALM      30.24R
OSHKOSH        MOCLDY    22  16  78 S3        30.23S
$$

WIZ032>034-041-042-053>061-280800-
SOUTHWEST WISCONSIN

CITY           SKY/WX    TMP DP  RH WIND       PRES   REMARKS
LA CROSSE      CLOUDY    28  21  75 S12       30.20S WCI  18
SPARTA         CLOUDY    27  22  82 S6        30.20F WCI  20
VIROQUA        CLOUDY    25  23  92 S9        30.17F WCI  15
BOSCOBEL       CLOUDY    29  22  75 VRB3      30.22F
PRAIRIE DU CHI CLOUDY    27  21  79 SE5       30.22F WCI  22
PLATTEVILLE    CLOUDY    27  24  89 SE10      30.21S WCI  17
$$

WIZ056-057-062-063-064-067-068-280800-
SOUTH CENTRAL WISCONSIN

CITY           SKY/WX    TMP DP  RH WIND       PRES   REMARKS
REEDSBURG      CLOUDY    26  24  92 CALM      30.21S FOG
BARABOO/DELLS  CLOUDY    25  23  91 S5        30.21S FOG     WCI  20
LONE ROCK      NOT AVBL
MINERAL POINT  CLOUDY    28  27  93 S6        30.20F FOG     WCI  22
MADISON        CLOUDY    25  20  81 S8        30.23S WCI  16
MIDDLETON      CLOUDY    29  24  82 SE3       30.22S
WATERTOWN      MOCLDY    23  18  83 S5        30.23F WCI  16
MONROE         CLOUDY    27  23  86 SE8       30.21F WCI  18
JANESVILLE     CLOUDY    27  19  74 S3        30.24F
$$

WIZ051-052-058>065-066-070>072-280800-
SOUTHEAST WISCONSIN

CITY           SKY/WX    TMP DP  RH WIND       PRES   REMARKS
MILWAUKEE      CLOUDY    27  17  66 SW3       30.25S
WAUKESHA       MOCLDY    23  18  80 CALM      30.25S
MILWAUKEE/TIMM CLOUDY    27  18  69 CALM      30.26S
RACINE         CLOUDY    26  19  74 CALM      30.26S
BURLINGTON     MOCLDY    16  14  91 CALM      30.25S
KENOSHA        MOCLDY    22  18  85 CALM      30.25S
FOND DU LAC    MOCLDY    23  17  78 S5        30.23F WCI  17
SHEBOYGAN      CLOUDY    25  18  74 W3        30.24S
WEST BEND      CLOUDY    23  18  80 CALM      30.25R
JUNEAU         CLOUDY    24  18  80 S5        30.24S WCI  18
$$

LSZ147-162-280800-
LAKE SUPERIOR

STATION/POSITION TIME  TEMP    WIND        PRES    WAVE
                       AIR SEA DIR/SP/G            HT/PER
                 (UTC) (F)     (DEG/KT/KT) (MB)    (FT/S)
DEVILS ISLAND    0600   29     170/  7/ 10 1021.4F
PORT WING        0640   29     180/  5/  7 1020.3S
SAXON HARBOR     0600   28        CALM     1021.0F
$$

LMZ867-665-643>646-280800-
LAKE MICHIGAN

STATION/POSITION TIME  TEMP    WIND        PRES    WAVE
                       AIR SEA DIR/SP/G            HT/PER
                 (UTC) (F)     (DEG/KT/KT) (MB)    (FT/S)
NORTHPORT PIER   0602   20     230/  1/  4 1024.0S
SISTER BAY       0513   19        CALM       N/A
KEWAUNEE LAKESHO 0600   22     290/  1/  3 1023.5R
SHEBOYGAN LAKESH 0600   26     280/  5/  5 1025.5R
PORT WASHINGTON  0600   27        CALM     1025.4S
MILWAUKEE LAKESH 0600   28     180/  2/  3   N/A
KENOSHA   LAKESH 0600   28     220/  3/  4 1024.4F
$$

TC  - TEMPERATURE IN CELSIUS
VSB - VISIBILITY IN STATUTE MILES
WCI - WIND CHILL INDEX
HX  - HEAT INDEX




USA.gov is the U.S. government's official web portal to all federal, state and local government web resources and services.